Location: Albany
(35.0170°S, 117.8920°E)
Time: 19:48:31
(UTC+08:00)

A-11 Canister half - Pass Details

Date: 29 January 2021
Orbit: 1525 x 1684 km, 47.3° (Epoch: 03 March)

Event Time Altitude Azimuth Distance (km) Brightness Sun altitude
Rises 23:26:56 0° 332° (NNW) 4,906 - -35.7°
Reaches altitude 10° 23:30:14 10° 337° (NNW) 3,932 - -35.8°
Maximum altitude 23:39:45 48° 47° (NE) 2,118 - -36.3°
Exits shadow 23:43:16 36° 92° (E) 2,450 9.9 -36.5°
Drops below altitude 10° 23:49:17 10° 117° (ESE) 3,939 11.3 -36.7°
Sets 23:52:34 0° 122° (ESE) 4,916 11.9 -36.8°
